Regional Weather Roundup
Issued by NWS

Home | Current Version | Previous Version | Graphics & Text | Print | Product List | Glossary On
Versions: 1 2 3 4 5 6 7 8 9 10 11 12 13 14 15 16 17 18 19 20 21 22 23 24 25 26 27 28 29 30 31 32 33 34 35 36 37 38 39 40 41 42 43 44 45 46 47 48 49 50
000
ASUS43 KFSD 252202
RWRSD

WEATHER ROUNDUP FOR SOUTH DAKOTA
NATIONAL WEATHER SERVICE SIOUX FALLS SD
400 PM CST THU DEC 25 2014

NOTE: "FAIR" INDICATES FEW OR NO CLOUDS BELOW 12,000 FEET WITH NO
SIGNIFICANT WEATHER AND/OR OBSTRUCTIONS TO VISIBILITY.


SDZ001>005-009-010-012>017-252300-
NORTHWEST AND NORTH CENTRAL SOUTH DAKOTA

CITY           SKY/WX    TMP DP  RH WIND       PRES   REMARKS
BUFFALO          N/A     24  18  77 NW17      29.79R WCI  11
FAITH            N/A     28  21  75 N18       29.81R WCI  15
MOBRIDGE       CLOUDY    30  26  85 N17       29.80R FOG     WCI  18
$$

SDZ012>016-024>037-041>051-057-063-072>074-252300-
SOUTHWEST AND SOUTH CENTRAL SOUTH DAKOTA

CITY           SKY/WX    TMP DP  RH WIND       PRES   REMARKS
RAPID CTY ARPT LGT SNOW  26  23  88 N22       29.79R BLWGSNOWWCI  12
PIERRE         CLOUDY    28  24  85 N17       29.79R WCI  16
CUSTER         LGT SNOW  22  15  75 N10       29.66R WCI  11
ELLSWORTH AFB  FLURRIES  25  23  92 N16G25    29.80  WCI  12
PHILIP         LGT SNOW  28  24  85 N14       29.81R VSB 3/4 WCI  17
PINE RIDGE     LGT SNOW  28  23  81 N18G29    29.73R WCI  15
WINNER         LGT SNOW  30  27  88 N21       29.73R FOG     WCI  17
$$

SDZ004>011-016>023-039-040-252300-
NORTHEAST SOUTH DAKOTA

CITY           SKY/WX    TMP DP  RH WIND       PRES   REMARKS
ABERDEEN       MOCLDY    29  23  78 N16       29.82R WCI  17
WATERTOWN      CLOUDY    27  24  89 NE15      29.75R FOG     WCI  15
SISSETON         N/A     27  25  92 N14       29.81R WCI  16
$$

SDZ017-020-022-023-036>040-048>070-252300-
SOUTHEAST SOUTH DAKOTA

CITY           SKY/WX    TMP DP  RH WIND       PRES   REMARKS
SIOUX FALLS    CLOUDY    33  28  81 NE18      29.68R WCI  22
HURON          LGT SNOW  28  25  88 N15G25    29.76R FOG     WCI  16
CHAMBERLAIN    LGT SNOW  28  26  91 N15G24    29.73R WCI  17
MITCHELL         N/A     33  30  88 N18       29.72R WCI  22
YANKTON        CLOUDY    36  28  75 NE15      29.67R
$$

ABBREVIATIONS USED IN REMARKS
   TC - TEMPERATURE IN CELSIUS
  WCI - WIND CHILL INDEX
   HX - HEAT INDEX
  VSB - VISIBILITY



USA.gov is the U.S. government's official web portal to all federal, state and local government web resources and services.